Location: ?
(35.4554°N, 139.3092°E)
Time: 02:33:02
(UTC+00:00)

Cosmos 1867 - Pass Details

Date: 21 April 2021
Orbit: 774 x 802 km, 65.0° (Epoch: 11 May)

Event Time Altitude Azimuth Distance (km) Brightness Sun altitude
Exits shadow 18:35:39 11° 187° (S) 2,287 5.6 -17.1°
Maximum altitude 18:40:40 49° 114° (ESE) 1,018 4.4 -16.2°
Drops below altitude 10° 18:45:54 10° 41° (NE) 2,370 7.2 -15.2°
Sets 18:48:24 0° 36° (NE) 3,306 8.0 -14.8°
